STARLINK-6320, 57336

Orbit data source: Space-Track

STARLINK-6320, 57336 is a payload satellite owned by SpaceX/Seattle (US) in LEO that was launched on Sun, 16 Jul 2023 UTC via an FALCON 9 launch vehicle from the Air Force Eastern Test Range (AFETR). Payload-class satellites include a variety of spacecraft equipped with specific instruments for various scientific and technological missions. These include communications satellites like Starlink; space stations such as the ISS; scientific satellites like the Hubble; Earth observation satellites from companies like Planet Labs, Umbra, and HawkEye 360; GPS; miniature CubeSats for education and research; and military/defense satellites.

Loading next visibility...
Identifier
57336, 2023-099J
Orbit
LEO
Country
Flag of USUS
Related business
Manufacturer
SpaceX/Seattle
Mission
Operational Commercial Communications
Bus & Motor
STARLINK, Unknown motor
Mass
305 kg wet, ~290 kg dry
Launch date (UTC)
2023-07-16 (3 years ago)
Launch vehicle
FALCON 9
Launch site
Air Force Eastern Test Range (AFETR)
Object type
Payload
Rocket body
Debris
Shape & HBR
Box + 1 Pan, 10.1 m
Radar Cross Section
11.087 m², Large (>1 m²)

Expand to show TLE details & history
Last TLE update: 3 days ago

TLE from 3 days ago
0 STARLINK-6320
1 57336U 23099J   26171.01866420 -.00000126  00000-0  49337-5 0  9992
2 57336  43.0037  31.3057 0001538 266.8498  93.2178 15.27579701161767
Epoch: 2026-06-20T00:26Z
TLE epoch observation values (Epoch: 2026-06-20T00:26:52.586Z)
Latitude
-0.00002°
Longitude
116.34727°
Altitude
482.885 km
Speed
7.626 km/s
True Right ascension
02h 05m 13s
True Declination
0° 00' 00"
Sunlit
Object was in daylight at epoch
Visualization orbit readout
Latitude
Unknown
Longitude
Unknown
Altitude
Unknown
Speed
Unknown
Apparent Right ascension
Unknown
Apparent Declination
Unknown
Sunlit
N/A
Visualization observer readout
Local Sidereal Time
00:39:41
Azimuth
Unknown
Elevation
Unknown
Doppler factor
Unknown
Orbital elements
Apogee altitude
486.05 km
Perigee altitude
483.939 km
Semi-major axis
6,863.132 km
Eccentricity
0.00015
Inclination
43.0037°
RAAN
31.3057°
Arg. of periapsis
266.8498°
True anomaly
93.2354°
Mean anomaly
93.2178°
Eccentric anomaly
93.2266°
Mean motion
3.81733 °/min
Orbital period
94.31 mins
BSTAR
0.0000049337
Loading maneuver chart data...
Computing Atmospheric mass density...
Loading historical data...
Loading historical data...
Loading historical data...
Loading historical data...
Loading historical data...
Loading historical data...
Loading historical data...

Documentation

Showing up to 5 results
|